Location: Ferchesar
(52.6477°N, 12.4298°E)
Time: 17:37:51
(UTC+01:00)

Tiros 1 - Pass Details

Date: 07 December 2021
Orbit: 629 x 664 km, 48.4° (Epoch: 22 January)

Event Time Altitude Azimuth Distance (km) Brightness Sun altitude
Rises 22:47:13 0° 276° (W) 2,946 - -56.8°
Reaches altitude 10° 22:49:55 10° 262° (W) 2,041 - -57.0°
Maximum altitude 22:53:36 23° 211° (SSW) 1,375 - -57.3°
Drops below altitude 10° 22:57:18 10° 159° (SSE) 2,052 - -57.6°
Sets 23:00:01 0° 145° (SE) 2,966 - -57.8°
